TITAN 3C TRANSTAGE DEB, 26049

Orbit data source: Space-Track

TITAN 3C TRANSTAGE DEB, 26049 is space debris in HEO originally from a launch on Tue, 21 Dec 1965 UTC launched from the Air Force Eastern Test Range (AFETR). Debris objects in space refer to the collection of defunct objects orbiting the Earth. Examples of debris include non-operational satellites, rocket bodies, and fragments generated from explosions, collisions, or faulty payload assembly.

Loading next visibility...
Identifier
26049, 1965-108AH
Orbit
HEO
Last TLE update
1 day ago
Origin
Manufacturer
Unknown
Mission
Spacecraft
Bus & Motor
Unknown
Mass
Unknown
Launch date (UTC)
1965-12-21 (59 years ago)
Launch vehicle
Unknown
Launch site
Air Force Eastern Test Range (AFETR)
Object type
Payload
Rocket body
Debris
Shape & HBR
Unknown
Radar Cross Section
Small (<0.1 m²)

Expand to show TLE details & history

TLE from 1 day ago
0 TITAN 3C TRANSTAGE DEB
1 26049U 65108AH  25128.21697049  .00014575  00000-0  15394-1 0  9992
2 26049  27.2365 323.9251 4810253 129.2510 284.3349  5.73427314 86649
Epoch: 2025-05-08T05:12Z
Definitive object data (Epoch: 2025-05-08T05:12:26.25Z)
Latitude
-0.00005°
Longitude
19.52358°
Altitude
8,178.436 km
Speed
4.954 km/s
True Right ascension
21h 35m 41s
True Declination
0° 00' 00"
Sunlit
Object was in daylight at TLE epoch
Visualization TLE readout
Latitude
26.10539°
Longitude
127.05234°
Altitude
671.105 km
Speed
9.106 km/s
Apparent Right ascension
04h 06m 28s
Apparent Declination
-5° 06' 48"
Sunlit
Object is in daylight
Visualization observer readout
Local Sidereal Time
15:15:26
Azimuth
338.382° N
Elevation
-53.347°
Doppler factor
1
Orbital elements
Apogee altitude
13,154.355 km
Perigee altitude
466.357 km
Semi-major axis
13,188.493 km
Eccentricity
0.4810253
Inclination
27.2365°
RAAN
323.9251°
Arg. of periapsis
129.251°
True anomaly
230.77243°
Mean anomaly
284.3349°
Eccentric anomaly
257.43433°
Mean motion
1.43301 °/min
BSTAR
0.015394
Orbital period
251.22 mins
Loading maneuver chart data...
Loading SW <> Apogee altitude chart data...

TITAN 3C TRANSTAGE DEB Visibility forecast

Observer location: undefined°, undefined°

Span
Click to sort rows by Start time (UTC) header in descending order
Start Az.
Max El. time (UTC)
Max El. Az.
Max El.
End time (UTC)
End Az.
60 mins2025-05-09 09:23:30.305Z160.83° S2025-05-09 09:59:30.305Z144.556° SSE12.159°2025-05-09 10:23:30.305Z128.23° SE
67 mins2025-05-09 14:10:30.305Z219.109° SW2025-05-09 15:04:30.305Z168.445° S30.697°2025-05-09 15:17:30.305Z108.425° ESE
11 mins2025-05-09 19:27:30.305Z249.925° W2025-05-09 19:35:30.305Z198.643° SSW25.043°2025-05-09 19:38:30.305Z149.993° SSE
|